Location: Carri�res
(48.9069°N, 2.1792°E)
Time: 17:10:59
(UTC+00:00)

SeaSat 1 - Pass Details

Date: 14 May 2021
Orbit: 744 x 747 km, 108.0° (Epoch: 12 June)

Event Time Altitude Azimuth Distance (km) Brightness Sun altitude
Rises 02:30:34 0° 20° (NNE) 3,203 7.2 -13.3°
Reaches altitude 10° 02:33:41 10° 359° (N) 2,275 5.7 -13.0°
Maximum altitude 02:36:32 16° 324° (NW) 1,910 4.7 -12.7°
Drops below altitude 10° 02:39:23 10° 288° (WNW) 2,270 4.7 -12.4°
Enters shadow 02:41:30 - 272° (W) 2,864 5.1 -12.2°
